Regional Weather Roundup
Issued by NWS Memphis, TN

Home | Current Version | Previous Version | Text Only | Print | Product List | Glossary On
Versions: 1 2 3 4 5 6 7 8 9 10 11 12 13 14 15 16 17 18 19 20 21 22 23 24 25 26 27 28 29 30 31 32 33 34 35 36 37 38 39 40 41 42 43 44 45 46 47 48 49 50
000
ASUS44 KMEG 270710
RWRMEG
MEMPHIS CWA HOURLY WEATHER ROUNDUP
NATIONAL WEATHER SERVICE MEMPHIS TN
100 AM CST FRI FEB 27 2015

...WEST TENNESSEE...

CITY           SKY/WX    TMP DP  RH WIND       PRES   REMARKS
MEMPHIS INTL   CLOUDY    26  15  63 NE12      30.44R WCI  16
NWS MEMPHIS      N/A     24 N/A N/A MISG        N/A
JACKSON        CLOUDY    24  14  65 N15       30.44R WCI  11
LEXINGTON      CLOUDY    25  16  68 N7        30.39R WCI  17
SAVANNAH       CLOUDY    27  19  74 N10       30.39R WCI  17
DYERSBURG      CLEAR     21   3  45 N10G16    30.49R WCI  10
UNION CITY     PTCLDY    18  12  79 N14       30.46R WCI   4
PARIS          CLOUDY    19  12  73 N13       30.44R WCI   7


...EASTERN ARKANSAS...

CITY           SKY/WX    TMP DP  RH WIND       PRES   REMARKS
JONESBORO      CLOUDY    24  13  62 N12       30.50R WCI  13
WEST MEMPHIS   CLOUDY    26  18  71 N17G24    30.46R WCI  13
BATESVILLE     CLEAR     19   9  63 NW5       30.50R WCI  13
NEWPORT        CLOUDY    25  16  68 N10       30.52R WCI  15
WALNUT RIDGE   CLEAR     21   9  58 N10       30.51S WCI  10
BLYTHEVILLE    PTCLDY    22  17  81 N15       30.50R WCI   9
SEARCY         CLEAR     21  13  71 N8        30.51S WCI  11
STUTTGART      CLEAR     25  16  68 N15       30.48R WCI  12
PINE BLUFF     CLEAR     26  16  65 N10       30.47R WCI  16
MONTICELLO     CLEAR     28  18  66 NE9       30.45R WCI  19


...NORTH MISSISSIPPI...

CITY           SKY/WX    TMP DP  RH WIND       PRES   REMARKS
TUPELO         CLOUDY    29  21  72 NE15G23   30.38R WCI  18
OXFORD         CLOUDY    25  18  74 N10G18    30.42R WCI  15
OLIVE BRANCH   CLOUDY    25  18  74 N16       30.44R WCI  12
TUNICA         MOCLDY    28  21  74 N16       30.46R WCI  17
CLARKSDALE     CLOUDY    28  19  69 N18G24    30.46R WCI  16
CORINTH        MIX PCPN  28  19  69 N13       30.39R WCI  18
GREENWOOD        N/A    N/A N/A N/A MISG      30.40R
COLUMBUS       CLOUDY    31  25  76 N18G24    30.35R WCI  19
STARKVILLE     CLOUDY    32  27  80 N5        30.36R WCI  27
GOLDEN TRIANGL CLOUDY    30  25  80 N14G22    30.34R WCI  20


...SOUTHEAST MISSOURI...

CITY           SKY/WX    TMP DP  RH WIND       PRES   REMARKS
WEST PLAINS    CLEAR     13   3  64 N6        30.47R WCI   4
POPLAR BLUFF   CLEAR     19   7  59 N9        30.50R WCI   8
CAPE GIRARDEAU CLEAR     18   8  65 N15       30.51R WCI   4


...NORTHWEST ALABAMA...

CITY           SKY/WX    TMP DP  RH WIND       PRES   REMARKS
MUSCLE SHOALS  CLOUDY    31  21  66 N10       30.36R WCI  22


...MIDDLE TENNESSEE...

CITY           SKY/WX    TMP DP  RH WIND       PRES   REMARKS
NASHVILLE      CLOUDY    25  15  66 N13       30.38R WCI  14
CLARKSVILLE    FAIR      20  12  71 N13       30.43R WCI   7
COLUMBIA       CLOUDY    25  21  86 N9        30.35R WCI  15


...WESTERN KENTUCKY...

CITY           SKY/WX    TMP DP  RH WIND       PRES   REMARKS
PADUCAH        PTCLDY    19  11  70 N12       30.47R WCI   7
FORT CAMPBELL  FAIR      19  11  70 N9        30.42R WCI   9


...CENTRAL ARKANSAS...

CITY           SKY/WX    TMP DP  RH WIND       PRES   REMARKS
LITTLE ROCK    CLEAR     26  11  52 N13       30.50R WCI  15


SKY/WX REPORTED AS FAIR MEANS FEW OR NO CLOUDS BELOW
12 THOUSAND FEET.



USA.gov is the U.S. government's official web portal to all federal, state and local government web resources and services.